Cosmos 2237 Rocket - Orbit

View from above orbital plane
View from above orbital plane
View from above satellite
View from above satellite

Ground track
Ground track

The orbit data is extracted from the following two-line orbital elements,

1 22566U 93016B   13139.52232329  .00000293  00000-0  17649-3 0  7896
2 22566 071.0086 313.4371 0012082 244.7953 115.1917 14.14778793 40565
Epoch (UTC): 19 May 2013 12:32:08
Eccentricity: 0.0012082
inclination: 71.0086°
perigee height: 834 km
apogee height: 852 km
right ascension of ascending node: 313.4371°
argument of perigee: 244.7953°
revolutions per day: 14.14778793
mean anomaly at epoch: 115.1917°
orbit number at epoch: 4056

The dashed part of the orbit path shows where the satellite is in the earth's shadow,  

Developed and maintained by Chris Peat, Heavens-Above GmbH. Please read the updated FAQ before sending e-mail. Imprint. DLR